Preview of NWS' New Version of Forecast
This preview is not operational and should not be used for support decisions.

Regional Weather Roundup (RWR)

Issued by National Weather Service (NWS)

                            
000
ASUS46 KSEW 172310
RWRWA 

WASHINGTON REGIONAL WEATHER ROUNDUP
NATIONAL WEATHER SERVICE SEATTLE WA
400 PM PDT MON JUN 17 2019

NOTE:"FAIR" INDICATES FEW OR NO CLOUDS BELOW 12,000 FEET WITH NO 
SIGNIFICANT WEATHER AND/OR OBSTRUCTIONS TO VISIBILITY.

WAZ507-509-555>559-180000-
SEATTLE, TACOMA, EVERETT, AND VICINITY
  
CITY           SKY/WX    TMP DP  RH WIND       PRES   REMARKS
EVERETT        PTSUNNY   71  55  56 NW8       30.15S                  
BOEING FIELD   MOSUNNY   75  53  46 VRB3      30.12F                  
RENTON         MOSUNNY   75  55  49 VRB7      30.12F                  
SEATAC AIRPORT PTSUNNY   71  53  52 VRB5      30.14F                  
JBLM-MCCHORD   MOSUNNY   74  62  66 W3        30.14F                  
PUYALLUP       FAIR      75  55  50 VRB5      30.14F                  
BREMERTON      PTSUNNY   74  57  55 VRB7      30.13F                  
JBLM-FT LEWIS  MOSUNNY   74  63  67 W8        30.13F                  
TACOMA NARROWS MOSUNNY   70  55  59 VRB6      30.14F                  
$$
 
WAZ001-503-506-510-514-515-180000-
NORTH INTERIOR
  
CITY           SKY/WX    TMP DP  RH WIND       PRES   REMARKS
BELLINGHAM     PTSUNNY   66  54  65 S12G21    30.10S                  
FRIDAY HARBOR  PTSUNNY   64  53  67 E7        30.11F                  
EASTSOUND        N/A     66  55  68 S12G18    30.08F                  
PORT ANGELES   MOSUNNY   64  55  72 W10G20    30.15R                  
EDIZ HOOK      FAIR      60  53  76 W17G25    30.15R                  
PORT TOWNSEND  FAIR      70  57  64 VRB5      30.13S                  
NAS WHIDBEY    PTSUNNY   66  53  63 SW17G23   30.16F                  
ARLINGTON      PTSUNNY   73  55  53 W12       30.14S                  
BURLINGTON     SUNNY     72  57  60 S9G18     30.13S                  
$$
 
WAZ020-022-039-040-504-511-512-180000-
SOUTHWEST INTERIOR
  
CITY           SKY/WX    TMP DP  RH WIND       PRES   REMARKS
SHELTON        PTSUNNY   77  57  50 SW12      30.11S                  
OLYMPIA        PTSUNNY   74  56  53 VRB3      30.14S                  
CHEHALIS       FAIR      77  59  53 VRB5      30.15S                  
KELSO          MOSUNNY   74  59  59 W7        30.14F                  
VANCOUVER      SUNNY     78  56  46 W12G17    30.10F                  
SCAPPOOSE, OR  SUNNY     79  57  46 NE12G20   30.09F                  
PORTLAND, OR   MOSUNNY   79  55  43 W10       30.10F                  
$$
 
WAZ021-516-517-180000-
WASHINGTON COAST
  
CITY           SKY/WX    TMP DP  RH WIND       PRES   REMARKS
FORKS          PTSUNNY   63  56  78 W13       30.20R                  
HOQUIAM        PTSUNNY   64  58  80 W16G22    30.20S                  
ASTORIA, OR    CLOUDY    63  55  75 NW12      30.20S                  
$$
 
WAZ019-023-024-040-567>569-180000-
CASCADE MOUNTAINS AND COLUMBIA GORGE
  
CITY           SKY/WX    TMP DP  RH WIND       PRES   REMARKS
STAMPEDE PASS  MOSUNNY   64  48  56 W9        30.17S                  
TROUTDALE, OR  SUNNY     78  56  46 SW9       30.10F                  
HOOD RIVER, OR CLEAR     81  50  34 SW6       30.01F                  
THE DALLES, OR SUNNY     83  55  38 NW20G25   29.94F                  
$$

WAZ026-027-041>044-520-521-180000-
EAST SLOPES
  
CITY           SKY/WX    TMP DP  RH WIND       PRES   REMARKS
OMAK           SUNNY     91  40  16 S7        29.88F                  
WENATCHEE      SUNNY     90  42  18 VRB6      29.90F                  
ELLENSBURG     MOSUNNY   84  49  29 NW25G35   29.96F                  
YAKIMA         SUNNY     92  39  15 N12       29.92F                  
SUNNYSIDE ARPT CLEAR     91  49  24 SW6       29.90                   
YAKIMA TC      FAIR      89  43  20 NE3       29.92F                  
$$

WAZ028-034-035-180000-
COLUMBIA BASIN
  
CITY           SKY/WX    TMP DP  RH WIND       PRES   REMARKS
EPHRATA        SUNNY     90  45  21 S12       29.91F                  
MOSES LAKE     SUNNY     91  47  21 W8        29.92F                  
PASCO          SUNNY     92  47  21 SW7       29.90F                  
RICHLAND ARPT  CLEAR     94  47  20 SW3       29.88F HX  90           
HERMISTON, OR  SUNNY     90  47  22 MISG      29.91F                  
$$

WAZ036>038-180000-
NORTHEAST WASHINGTON
  
CITY           SKY/WX    TMP DP  RH WIND       PRES   REMARKS
SPOKANE GEIGER MOSUNNY   83  52  34 SW8       29.96F                  
SPOKANE FELTS  SUNNY     84  51  31 W8        29.94F                  
FAIRCHILD AFB  SUNNY     83  51  32 NW7       29.97F                  
COEURDALENE,ID SUNNY     81  54  39 VRB3      29.97F                  
DEER PARK      SUNNY     82  49  31 W5        29.96F                  
$$

WAZ029>033-180000-
SOUTHEAST WASHINGTON
  
CITY           SKY/WX    TMP DP  RH WIND       PRES   REMARKS
PULLMAN        SUNNY     81  53  37 NW10G17   30.00F                  
LEWISTON, ID   SUNNY     89  51  27 NW14      29.92F                  
WALLA WALLA    SUNNY     86  48  26 SW6       29.94F                  
PENDLETON, OR  SUNNY     86  47  25 NW8       29.96F                  
$$